BAW157 KOAK-KLAX

Flight info

Callsign BAW157
Flight time 0h 58m
Altitude 31000
Route CNDEL5 SUSEY EBAYE BURGL IRNMN2
Aircraft B738/M-SDE2E3FGHIRWXY/LB1

Departure

Time 2026-05-04 00:01
Airport San Francisco Bay Oakland International Airport (KOAK)

Arrival

Time 2026-05-04 00:59
Airport Los Angeles International Airport (KLAX)
Time Latitude Longitude Altitude Speed Heading
2026-05-03 23:43 37.71049 -122.21571 15 ft 0 kts 301°
2026-05-03 23:53 37.71045 -122.21562 15 ft 2 kts 300°
2026-05-03 23:53 37.71037 -122.21545 15 ft 2 kts 301°
2026-05-03 23:53 37.71030 -122.21529 15 ft 2 kts 301°
2026-05-03 23:53 37.71022 -122.21513 15 ft 2 kts 301°
2026-05-03 23:54 37.71014 -122.21497 15 ft 2 kts 301°
2026-05-03 23:54 37.71007 -122.21481 15 ft 1 kts 301°
2026-05-03 23:54 37.71004 -122.21474 15 ft 0 kts 273°
2026-05-03 23:54 37.71005 -122.21468 15 ft 0 kts 223°
2026-05-03 23:55 37.71001 -122.21473 15 ft 3 kts 224°
2026-05-03 23:55 37.70991 -122.21483 15 ft 1 kts 218°
2026-05-03 23:55 37.70988 -122.21486 15 ft 0 kts 219°
2026-05-03 23:57 37.70974 -122.21500 15 ft 7 kts 219°
2026-05-03 23:58 37.70919 -122.21555 14 ft 12 kts 217°
2026-05-03 23:58 37.70838 -122.21633 14 ft 16 kts 218°
2026-05-03 23:58 37.70753 -122.21721 14 ft 15 kts 220°
2026-05-03 23:58 37.70670 -122.21783 14 ft 12 kts 178°
2026-05-03 23:59 37.70602 -122.21729 14 ft 11 kts 130°
2026-05-03 23:59 37.70548 -122.21648 14 ft 15 kts 130°
2026-05-03 23:59 37.70472 -122.21536 14 ft 16 kts 130°
2026-05-03 23:59 37.70402 -122.21430 14 ft 14 kts 136°
2026-05-04 00:00 37.70318 -122.21376 14 ft 13 kts 158°
2026-05-04 00:00 37.70236 -122.21359 14 ft 10 kts 196°
2026-05-04 00:00 37.70172 -122.21446 15 ft 20 kts 280°
2026-05-04 00:00 37.70327 -122.21705 15 ft 70 kts 309°
2026-05-04 00:01 37.70824 -122.22434 14 ft 145 kts 310°
2026-05-04 00:01 37.71561 -122.23529 458 ft 173 kts 306°
2026-05-04 00:01 37.72287 -122.24653 1437 ft 169 kts 306°
2026-05-04 00:01 37.73049 -122.25873 1881 ft 189 kts 307°
2026-05-04 00:02 37.73977 -122.27261 1961 ft 220 kts 309°
2026-05-04 00:02 37.75009 -122.28771 1935 ft 234 kts 309°
2026-05-04 00:02 37.76089 -122.30370 1949 ft 245 kts 308°
2026-05-04 00:02 37.77238 -122.32086 2420 ft 264 kts 309°
2026-05-04 00:03 37.78398 -122.33811 3410 ft 264 kts 309°
2026-05-04 00:03 37.79453 -122.35722 4261 ft 269 kts 292°
2026-05-04 00:03 37.79829 -122.38007 5090 ft 272 kts 268°
2026-05-04 00:03 37.79517 -122.40363 5911 ft 276 kts 250°
2026-05-04 00:04 37.78734 -122.42584 6745 ft 278 kts 236°
2026-05-04 00:04 37.77451 -122.44353 7568 ft 278 kts 212°
2026-05-04 00:04 37.75707 -122.45342 8413 ft 277 kts 191°
2026-05-04 00:04 37.73807 -122.45662 9269 ft 277 kts 183°
2026-05-04 00:05 37.71872 -122.45810 9779 ft 284 kts 181°
2026-05-04 00:05 37.69884 -122.45940 9955 ft 286 kts 181°
2026-05-04 00:05 37.67897 -122.46079 9963 ft 287 kts 182°
2026-05-04 00:05 37.65813 -122.46230 10260 ft 309 kts 182°
2026-05-04 00:06 37.63611 -122.46392 10758 ft 324 kts 182°
2026-05-04 00:06 37.61326 -122.46561 11241 ft 338 kts 182°
2026-05-04 00:06 37.58911 -122.46740 11718 ft 352 kts 182°
2026-05-04 00:06 37.56452 -122.46926 12402 ft 359 kts 182°
2026-05-04 00:07 37.53944 -122.47105 13175 ft 363 kts 180°
2026-05-04 00:07 37.51436 -122.47003 13921 ft 365 kts 171°
2026-05-04 00:07 37.48993 -122.46102 14674 ft 366 kts 154°
2026-05-04 00:07 37.46867 -122.44408 15399 ft 368 kts 140°
2026-05-04 00:08 37.45015 -122.42178 16127 ft 371 kts 134°
2026-05-04 00:08 37.43223 -122.39790 16838 ft 375 kts 133°
2026-05-04 00:08 37.41470 -122.37380 17550 ft 378 kts 132°
2026-05-04 00:08 37.39691 -122.34921 18230 ft 382 kts 132°
2026-05-04 00:09 37.37905 -122.32459 18893 ft 385 kts 132°
2026-05-04 00:09 37.36099 -122.29986 19550 ft 389 kts 133°
2026-05-04 00:09 37.34268 -122.27492 20174 ft 392 kts 133°
2026-05-04 00:09 37.32397 -122.24952 20771 ft 397 kts 133°
2026-05-04 00:10 37.30529 -122.22422 21372 ft 400 kts 134°
2026-05-04 00:10 37.28640 -122.19869 21988 ft 403 kts 134°
2026-05-04 00:10 37.26708 -122.17261 22592 ft 406 kts 134°
2026-05-04 00:10 37.24801 -122.14687 23084 ft 411 kts 134°
2026-05-04 00:11 37.22842 -122.12044 23635 ft 414 kts 134°
2026-05-04 00:11 37.20867 -122.09382 24091 ft 419 kts 134°
2026-05-04 00:11 37.18867 -122.06687 24494 ft 425 kts 134°
2026-05-04 00:11 37.16847 -122.03968 24938 ft 429 kts 134°
2026-05-04 00:12 37.14805 -122.01220 25275 ft 436 kts 135°
2026-05-04 00:12 37.12730 -121.98431 25685 ft 440 kts 135°
2026-05-04 00:12 37.10630 -121.95611 26105 ft 444 kts 135°
2026-05-04 00:12 37.08528 -121.92792 26445 ft 450 kts 135°
2026-05-04 00:13 37.06396 -121.89934 26858 ft 453 kts 135°
2026-05-04 00:13 37.04218 -121.87018 27225 ft 457 kts 135°
2026-05-04 00:13 37.02044 -121.84109 27614 ft 461 kts 135°
2026-05-04 00:13 36.99858 -121.81186 28056 ft 462 kts 136°
2026-05-04 00:14 36.97676 -121.78270 28501 ft 463 kts 136°
2026-05-04 00:14 36.95482 -121.75340 28969 ft 463 kts 136°
2026-05-04 00:14 36.93290 -121.72414 29415 ft 464 kts 136°
2026-05-04 00:14 36.91069 -121.69454 29817 ft 465 kts 137°
2026-05-04 00:15 36.88873 -121.66530 30148 ft 467 kts 137°
2026-05-04 00:15 36.86614 -121.63525 30447 ft 470 kts 138°
2026-05-04 00:15 36.84395 -121.60575 30812 ft 471 kts 138°
2026-05-04 00:15 36.82147 -121.57590 30949 ft 473 kts 139°
2026-05-04 00:16 36.77639 -121.51618 30684 ft 473 kts 140°
2026-05-04 00:16 36.75369 -121.48663 30130 ft 474 kts 140°
2026-05-04 00:16 36.73080 -121.45743 29364 ft 476 kts 140°
2026-05-04 00:17 36.70740 -121.42844 28632 ft 475 kts 141°
2026-05-04 00:17 36.68380 -121.40025 28171 ft 474 kts 141°
2026-05-04 00:17 36.65919 -121.37187 28299 ft 478 kts 141°
2026-05-04 00:17 36.63618 -121.34293 28710 ft 471 kts 139°
2026-05-04 00:18 36.59280 -121.28204 28631 ft 461 kts 137°
2026-05-04 00:18 36.55005 -121.22133 28967 ft 474 kts 139°
2026-05-04 00:19 36.52819 -121.19116 29407 ft 473 kts 140°
2026-05-04 00:19 36.50584 -121.16084 29816 ft 473 kts 141°
2026-05-04 00:19 36.48365 -121.13115 30279 ft 472 kts 142°
2026-05-04 00:19 36.46143 -121.10169 30704 ft 471 kts 142°
2026-05-04 00:20 36.41604 -121.04183 30604 ft 479 kts 142°
2026-05-04 00:20 36.37122 -120.97867 30833 ft 494 kts 140°
2026-05-04 00:21 36.32673 -120.91384 30916 ft 499 kts 140°
2026-05-04 00:21 36.28128 -120.84781 30912 ft 506 kts 140°
2026-05-04 00:22 36.23556 -120.78172 30909 ft 507 kts 141°
2026-05-04 00:22 36.18943 -120.71558 30907 ft 510 kts 141°
2026-05-04 00:23 36.14275 -120.64899 30909 ft 510 kts 141°
2026-05-04 00:23 36.09618 -120.58276 30911 ft 516 kts 142°
2026-05-04 00:24 36.04898 -120.51585 30906 ft 512 kts 142°
2026-05-04 00:24 36.00213 -120.44946 30901 ft 516 kts 142°
2026-05-04 00:25 35.95490 -120.38274 30892 ft 515 kts 142°
2026-05-04 00:25 35.90768 -120.31614 30893 ft 511 kts 143°
2026-05-04 00:26 35.85738 -120.25394 30888 ft 497 kts 153°
2026-05-04 00:26 35.80190 -120.20576 30889 ft 485 kts 161°
2026-05-04 00:27 35.74441 -120.16315 30897 ft 478 kts 162°
2026-05-04 00:27 35.68713 -120.12183 30899 ft 483 kts 162°
2026-05-04 00:28 35.62936 -120.07969 30897 ft 483 kts 162°
2026-05-04 00:28 35.57193 -120.03702 30903 ft 484 kts 161°
2026-05-04 00:29 35.51477 -119.99412 30917 ft 484 kts 161°
2026-05-04 00:29 35.45743 -119.95103 30921 ft 482 kts 161°
2026-05-04 00:30 35.39994 -119.90791 30918 ft 485 kts 161°
2026-05-04 00:30 35.34245 -119.86482 30921 ft 487 kts 161°
2026-05-04 00:31 35.28494 -119.82137 30925 ft 487 kts 159°
2026-05-04 00:31 35.22913 -119.77285 30924 ft 494 kts 154°
2026-05-04 00:32 35.17456 -119.72081 30921 ft 499 kts 153°
2026-05-04 00:32 35.12077 -119.66889 30922 ft 493 kts 154°
2026-05-04 00:33 35.03881 -119.59155 30921 ft 498 kts 154°
2026-05-04 00:34 34.98499 -119.54117 30531 ft 482 kts 154°
2026-05-04 00:34 34.95850 -119.51644 29947 ft 480 kts 154°
2026-05-04 00:34 34.93203 -119.49188 29259 ft 479 kts 154°
2026-05-04 00:34 34.90556 -119.46743 28933 ft 472 kts 154°
2026-05-04 00:35 34.88259 -119.44640 28916 ft 464 kts 155°
2026-05-04 00:35 34.83102 -119.40015 28295 ft 459 kts 155°
2026-05-04 00:35 34.80528 -119.37733 27541 ft 460 kts 155°
2026-05-04 00:36 34.77940 -119.35442 26853 ft 460 kts 155°
2026-05-04 00:36 34.75364 -119.33162 26221 ft 457 kts 155°
2026-05-04 00:36 34.72826 -119.30913 25839 ft 448 kts 155°
2026-05-04 00:36 34.70285 -119.28682 25190 ft 446 kts 155°
2026-05-04 00:37 34.67789 -119.26507 24548 ft 444 kts 155°
2026-05-04 00:37 34.65306 -119.24351 24004 ft 438 kts 155°
2026-05-04 00:37 34.62914 -119.22255 23945 ft 410 kts 156°
2026-05-04 00:37 34.60638 -119.20262 23711 ft 398 kts 156°
2026-05-04 00:38 34.58391 -119.18327 23086 ft 399 kts 156°
2026-05-04 00:38 34.56114 -119.16392 22503 ft 399 kts 156°
2026-05-04 00:38 34.53847 -119.14448 21907 ft 401 kts 154°
2026-05-04 00:38 34.51590 -119.12480 21329 ft 401 kts 154°
2026-05-04 00:39 34.49343 -119.10502 20745 ft 401 kts 153°
2026-05-04 00:39 34.47080 -119.08502 20145 ft 400 kts 152°
2026-05-04 00:39 34.44846 -119.06523 19565 ft 399 kts 152°
2026-05-04 00:39 34.42619 -119.04556 18991 ft 397 kts 151°
2026-05-04 00:40 34.40377 -119.02599 18409 ft 395 kts 150°
2026-05-04 00:40 34.38157 -119.00673 17817 ft 393 kts 150°
2026-05-04 00:40 34.35942 -118.98757 17220 ft 391 kts 150°
2026-05-04 00:40 34.33752 -118.96858 16666 ft 383 kts 149°
2026-05-04 00:41 34.31615 -118.94965 16085 ft 381 kts 148°
2026-05-04 00:41 34.29505 -118.93054 15509 ft 378 kts 148°
2026-05-04 00:41 34.27418 -118.91144 14940 ft 375 kts 147°
2026-05-04 00:41 34.25338 -118.89239 14374 ft 371 kts 147°
2026-05-04 00:42 34.23296 -118.87364 13808 ft 368 kts 145°
2026-05-04 00:42 34.21278 -118.85450 13271 ft 372 kts 145°
2026-05-04 00:42 34.19286 -118.83597 12911 ft 348 kts 146°
2026-05-04 00:42 34.17431 -118.81898 12802 ft 321 kts 146°
2026-05-04 00:43 34.15704 -118.80283 12484 ft 305 kts 144°
2026-05-04 00:43 34.14128 -118.78640 12083 ft 300 kts 141°
2026-05-04 00:43 34.12585 -118.76929 11665 ft 298 kts 140°
2026-05-04 00:43 34.11087 -118.75253 11285 ft 295 kts 140°
2026-05-04 00:44 34.09574 -118.73576 10913 ft 292 kts 141°
2026-05-04 00:44 34.08075 -118.71937 10552 ft 289 kts 141°
2026-05-04 00:44 34.06586 -118.70321 10169 ft 287 kts 141°
2026-05-04 00:44 34.05126 -118.68738 9896 ft 281 kts 141°
2026-05-04 00:45 34.03757 -118.67117 9756 ft 272 kts 133°
2026-05-04 00:45 34.02777 -118.65138 9356 ft 277 kts 109°
2026-05-04 00:45 34.02449 -118.62868 9027 ft 277 kts 97°
2026-05-04 00:45 34.02314 -118.60551 8678 ft 276 kts 95°
2026-05-04 00:46 34.02175 -118.58250 8340 ft 274 kts 96°
2026-05-04 00:46 34.01998 -118.55997 8018 ft 272 kts 98°
2026-05-04 00:46 34.01790 -118.53736 7773 ft 269 kts 98°
2026-05-04 00:46 34.01577 -118.51520 7455 ft 267 kts 98°
2026-05-04 00:47 34.01369 -118.49332 7374 ft 254 kts 98°
2026-05-04 00:47 34.01176 -118.47271 7305 ft 243 kts 98°
2026-05-04 00:47 34.01090 -118.45279 7183 ft 234 kts 87°
2026-05-04 00:47 34.01330 -118.43362 6921 ft 234 kts 78°
2026-05-04 00:48 34.01713 -118.41466 6682 ft 233 kts 77°
2026-05-04 00:48 34.02087 -118.39575 6457 ft 231 kts 78°
2026-05-04 00:48 34.02427 -118.37686 6112 ft 233 kts 79°
2026-05-04 00:48 34.02755 -118.35735 5736 ft 236 kts 81°
2026-05-04 00:49 34.02993 -118.33789 5474 ft 234 kts 84°
2026-05-04 00:49 34.03174 -118.31832 5165 ft 233 kts 85°
2026-05-04 00:49 34.03348 -118.29914 4860 ft 234 kts 85°
2026-05-04 00:49 34.03546 -118.27958 4553 ft 234 kts 84°
2026-05-04 00:50 34.03764 -118.26022 4270 ft 233 kts 83°
2026-05-04 00:50 34.03985 -118.24107 4003 ft 231 kts 83°
2026-05-04 00:50 34.04204 -118.22184 3702 ft 231 kts 83°
2026-05-04 00:50 34.04419 -118.20262 3432 ft 230 kts 83°
2026-05-04 00:51 34.04633 -118.18360 3184 ft 227 kts 83°
2026-05-04 00:51 34.04842 -118.16528 3085 ft 215 kts 83°
2026-05-04 00:51 34.05024 -118.14792 2944 ft 205 kts 89°
2026-05-04 00:51 34.04807 -118.13155 2803 ft 194 kts 109°
2026-05-04 00:52 34.04359 -118.11639 2609 ft 189 kts 111°
2026-05-04 00:52 34.03827 -118.10232 2547 ft 187 kts 130°
2026-05-04 00:52 34.02768 -118.09338 2557 ft 187 kts 166°
2026-05-04 00:52 34.01487 -118.09074 2546 ft 185 kts 185°
2026-05-04 00:53 34.00310 -118.09584 2549 ft 182 kts 221°
2026-05-04 00:53 33.99560 -118.10815 2552 ft 182 kts 241°
2026-05-04 00:53 33.98886 -118.12116 2548 ft 181 kts 234°
2026-05-04 00:53 33.98231 -118.13403 2549 ft 183 kts 246°
2026-05-04 00:54 33.97852 -118.14874 2560 ft 180 kts 258°
2026-05-04 00:54 33.97657 -118.16330 2555 ft 174 kts 261°
2026-05-04 00:54 33.97498 -118.17770 2558 ft 174 kts 262°
2026-05-04 00:54 33.97350 -118.19198 2556 ft 175 kts 262°
2026-05-04 00:55 33.97202 -118.20657 2553 ft 176 kts 262°
2026-05-04 00:55 33.97055 -118.22113 2551 ft 174 kts 262°
2026-05-04 00:55 33.96907 -118.23576 2556 ft 174 kts 262°
2026-05-04 00:55 33.96761 -118.25016 2556 ft 176 kts 262°
2026-05-04 00:56 33.96613 -118.26476 2405 ft 176 kts 262°
2026-05-04 00:56 33.96465 -118.27934 2162 ft 171 kts 262°
2026-05-04 00:56 33.96325 -118.29321 1900 ft 162 kts 262°
2026-05-04 00:56 33.96188 -118.30670 1718 ft 163 kts 261°
2026-05-04 00:57 33.96053 -118.31982 1453 ft 154 kts 262°
2026-05-04 00:57 33.95924 -118.33249 1288 ft 153 kts 262°
2026-05-04 00:57 33.95795 -118.34525 1071 ft 149 kts 262°
2026-05-04 00:57 33.95667 -118.35757 872 ft 148 kts 262°
2026-05-04 00:58 33.95542 -118.36970 680 ft 147 kts 263°
2026-05-04 00:58 33.95417 -118.38195 494 ft 146 kts 263°
2026-05-04 00:58 33.95291 -118.39398 295 ft 146 kts 264°
2026-05-04 00:58 33.95169 -118.40618 124 ft 141 kts 263°
2026-05-04 00:59 33.95076 -118.41525 125 ft 76 kts 262°
2026-05-04 00:59 33.95020 -118.42034 122 ft 54 kts 263°
2026-05-04 00:59 33.94974 -118.42435 120 ft 40 kts 254°
2026-05-04 00:59 33.94871 -118.42657 118 ft 16 kts 229°
2026-05-04 01:00 33.94848 -118.42683 117 ft 0 kts 198°
2026-05-04 01:00 33.94761 -118.42730 115 ft 22 kts 207°
2026-05-04 01:01 33.94646 -118.42726 112 ft 17 kts 112°
2026-05-04 01:01 33.94644 -118.42596 114 ft 14 kts 86°
2026-05-04 01:01 33.94660 -118.42468 116 ft 21 kts 82°
2026-05-04 01:01 33.94684 -118.42244 119 ft 28 kts 83°
2026-05-04 01:02 33.94706 -118.42019 121 ft 26 kts 83°
2026-05-04 01:02 33.94729 -118.41808 122 ft 24 kts 83°
2026-05-04 01:02 33.94750 -118.41610 123 ft 22 kts 83°
2026-05-04 01:02 33.94759 -118.41431 123 ft 18 kts 129°
2026-05-04 01:03 33.94651 -118.41370 123 ft 16 kts 193°
2026-05-04 01:03 33.94541 -118.41376 122 ft 15 kts 201°
2026-05-04 01:03 33.94509 -118.41469 121 ft 2 kts 258°